W7KKE-3 Weather Reports


time (UTC)temp
F
wind
direction
speed
knots
gust
knots
rain 1hr
in
rain 24hr
in
rain mn
in
humidity
%
barometer
mb
20260508160149 54 184 0.0 7.0 0.00 0.00 0.00 75 1017.7
20260508155150 54 161 1.7 7.0 0.00 0.00 0.00 75 1017.6
20260508154650 54 190 3.5 7.8 0.00 0.00 0.00 75 1017.7
20260508154152 54 196 1.7 7.8 0.00 0.00 0.00 76 1017.5
20260508153650 54 173 1.7 7.8 0.00 0.00 0.00 76 1017.5
20260508153150 54 224 3.5 7.0 0.00 0.00 0.00 76 1017.5
20260508152651 54 194 4.3 6.1 0.00 0.00 0.00 76 1017.5
20260508152150 54 162 3.5 5.2 0.00 0.00 0.00 76 1017.5
20260508151649 54 184 3.5 6.1 0.00 0.00 0.00 76 1017.4
20260508151152 54 186 1.7 6.1 0.00 0.00 0.00 76 1017.2
20260508150650 54 224 2.6 6.1 0.00 0.00 0.00 77 1017.2
20260508150149 53 172 2.6 5.2 0.00 0.00 0.00 77 1017.1
20260508145651 53 179 2.6 6.1 0.00 0.00 0.00 77 1017.0
20260508145150 53 196 1.7 6.1 0.00 0.00 0.00 78 1016.9
20260508144649 53 121 1.7 6.1 0.00 0.00 0.00 78 1016.6
20260508144152 53 154 2.6 3.5 0.00 0.00 0.00 78 1016.5
20260508143650 53 95 0.9 4.3 0.00 0.00 0.00 79 1016.6
20260508143150 53 194 0.9 4.3 0.00 0.00 0.00 79 1016.3
20260508142650 53 187 1.7 4.3 0.00 0.00 0.00 79 1016.5
20260508142150 53 161 0.0 3.5 0.00 0.00 0.00 80 1016.3
20260508141152 52 197 1.7 3.5 0.00 0.00 0.00 80 1016.2
20260508140650 52 179 1.7 3.5 0.00 0.00 0.00 80 1016.3
20260508140149 52 114 0.9 1.7 0.00 0.00 0.00 80 1016.3
20260508135650 52 133 0.0 4.3 0.00 0.00 0.00 80 1016.2
20260508135150 52 91 2.6 4.3 0.00 0.00 0.00 80 1015.9
20260508134650 52 96 0.9 4.3 0.00 0.00 0.00 80 1015.8
20260508134149 52 100 1.7 3.5 0.00 0.00 0.00 80 1016.1
20260508133649 52 95 1.7 3.5 0.00 0.00 0.00 80 1016.1
20260508133149 52 105 1.7 4.3 0.00 0.00 0.00 80 1016.1
20260508132651 52 103 1.7 4.3 0.00 0.00 0.00 80 1016.3
20260508132151 52 92 2.6 4.3 0.00 0.00 0.00 80 1016.3
20260508131649 52 117 3.5 3.5 0.00 0.00 0.00 80 1016.4
20260508131152 52 96 1.7 3.5 0.00 0.00 0.00 80 1016.4
20260508130649 52 120 1.7 3.5 0.00 0.00 0.00 80 1016.4
20260508130149 52 138 1.7 1.7 0.00 0.00 0.00 80 1016.4
20260508125650 52 140 0.0 4.3 0.00 0.00 0.00 80 1016.5
20260508125150 52 176 0.9 4.3 0.00 0.00 0.00 80 1016.6
20260508124649 52 120 1.7 4.3 0.00 0.00 0.00 81 1016.6
20260508124152 51 170 0.9 2.6 0.00 0.00 0.00 81 1016.5
20260508123649 51 141 1.7 2.6 0.00 0.00 0.00 81 1016.5
20260508123149 52 95 0.0 1.7 0.00 0.00 0.00 81 1016.5
20260508122650 51 105 0.0 4.3 0.00 0.00 0.00 81 1016.4
20260508122150 51 112 0.9 4.3 0.00 0.00 0.00 81 1016.3
20260508121650 51 96 0.9 4.3 0.00 0.00 0.00 81 1016.3
20260508121152 51 106 1.7 3.5 0.00 0.00 0.00 81 1016.4
20260508120649 51 113 1.7 3.5 0.00 0.00 0.00 81 1016.2
20260508120150 51 103 2.6 3.5 0.00 0.00 0.00 81 1016.2
20260508115650 51 109 2.6 2.6 0.00 0.00 0.00 81 1016.2
20260508115149 51 121 0.9 2.6 0.00 0.00 0.00 81 1016.2
20260508114649 51 116 0.0 3.5 0.00 0.00 0.00 81 1016.2
20260508114153 51 96 0.9 3.5 0.00 0.00 0.00 81 1016.1
20260508113649 51 123 1.7 3.5 0.00 0.00 0.00 81 1016.0
20260508113149 51 67 1.7 2.6 0.00 0.00 0.00 82 1016.0
20260508112650 50 95 0.9 3.5 0.00 0.00 0.00 81 1016.1
20260508112150 50 102 0.9 3.5 0.00 0.00 0.00 81 1016.0
20260508111649 51 102 1.7 3.5 0.00 0.00 0.00 81 1015.9
20260508111151 50 109 0.9 4.3 0.00 0.00 0.00 81 1015.7
20260508110649 51 124 1.7 4.3 0.00 0.00 0.00 81 1015.6
20260508110150 51 102 2.6 4.3 0.00 0.00 0.00 81 1015.7
20260508105650 51 120 1.7 4.3 0.00 0.00 0.00 81 1015.6
20260508105150 51 100 2.6 3.5 0.00 0.00 0.00 81 1015.7
20260508104649 51 77 1.7 3.5 0.00 0.00 0.00 81 1015.8
20260508104151 51 98 1.7 3.5 0.00 0.00 0.00 81 1015.8
20260508103649 50 92 0.9 3.5 0.00 0.00 0.00 82 1015.8
20260508102650 50 95 0.9 5.2 0.00 0.00 0.00 82 1015.7
20260508102150 50 89 2.6 5.2 0.00 0.00 0.00 82 1015.6
20260508101649 50 89 2.6 4.3 0.00 0.00 0.00 82 1015.6
20260508101246 50 127 1.7 3.5 0.00 0.00 0.00 82 1015.6
20260508101151 50 127 1.7 3.5 0.00 0.00 0.00 82 1015.6
20260508100649 50 96 2.6 5.2 0.00 0.00 0.00 81 1015.5
20260508100149 50 120 0.9 5.2 0.00 0.00 0.00 81 1015.4
20260508095650 50 105 2.6 5.2 0.00 0.00 0.00 81 1015.3
20260508095149 50 99 2.6 5.2 0.00 0.00 0.00 81 1015.3
20260508094649 50 95 2.6 5.2 0.00 0.00 0.00 82 1015.4
20260508094151 50 92 1.7 4.3 0.00 0.00 0.00 82 1015.4
20260508093649 50 107 2.6 5.2 0.00 0.00 0.00 82 1015.3
20260508093149 50 89 4.3 5.2 0.00 0.00 0.00 82 1015.3
20260508092650 50 120 2.6 5.2 0.00 0.00 0.00 82 1015.3
20260508092149 49 113 4.3 4.3 0.00 0.00 0.00 82 1015.2
20260508091649 49 100 1.7 4.3 0.00 0.00 0.00 82 1015.2
20260508091151 49 99 1.7 4.3 0.00 0.00 0.00 82 1015.3
20260508090150 49 102 3.5 5.2 0.00 0.00 0.00 82 1015.0
20260508085650 49 109 3.5 5.2 0.00 0.00 0.00 82 1015.0
20260508085149 49 106 1.7 5.2 0.00 0.00 0.00 82 1015.0
20260508084649 49 95 3.5 5.2 0.00 0.00 0.00 82 1015.0
20260508084151 49 114 2.6 5.2 0.00 0.00 0.00 81 1015.0
20260508083649 49 91 2.6 5.2 0.00 0.00 0.00 81 1014.8
20260508083149 49 98 2.6 5.2 0.00 0.00 0.00 81 1014.8
20260508082650 49 91 3.5 5.2 0.00 0.00 0.00 81 1014.8
20260508082149 48 92 3.5 4.3 0.00 0.00 0.00 82 1014.7
20260508081649 48 107 2.6 4.3 0.00 0.00 0.00 81 1014.7
20260508081151 48 113 3.5 4.3 0.00 0.00 0.00 81 1014.6
20260508080649 48 102 3.5 4.3 0.00 0.00 0.00 81 1014.6
20260508080149 48 100 2.6 5.2 0.00 0.00 0.00 81 1014.5
20260508075650 48 91 2.6 5.2 0.00 0.00 0.00 81 1014.6
20260508075149 48 100 3.5 5.2 0.00 0.00 0.00 81 1014.7
20260508074649 48 91 2.6 4.3 0.00 0.00 0.00 81 1014.8
20260508074151 48 92 2.6 4.3 0.00 0.00 0.00 81 1014.8
20260508073649 48 121 2.6 4.3 0.00 0.00 0.00 81 1014.7
20260508073149 48 112 2.6 4.3 0.00 0.00 0.00 81 1014.6
20260508072650 48 100 2.6 4.3 0.00 0.00 0.00 81 1014.6
20260508072149 48 110 2.6 4.3 0.00 0.00 0.00 80 1014.6
20260508071649 48 119 2.6 4.3 0.00 0.00 0.00 80 1014.6
20260508071151 48 116 0.9 4.3 0.00 0.00 0.00 80 1014.6
20260508070649 48 107 2.6 4.3 0.00 0.00 0.00 80 1014.6
20260508070149 48 103 2.6 3.5 0.00 0.00 0.00 80 1014.5
20260508065650 48 91 1.7 3.5 0.00 0.00 0.00 80 1014.6
20260508065149 48 105 2.6 4.3 0.00 0.00 0.00 80 1014.6
20260508064649 48 105 2.6 4.3 0.00 0.00 0.00 80 1014.6
20260508064151 48 102 3.5 4.3 0.00 0.00 0.00 80 1014.5
20260508063650 48 123 3.5 4.3 0.00 0.00 0.00 80 1014.5
20260508063151 49 106 2.6 4.3 0.00 0.00 0.00 79 1014.5
20260508062650 48 105 2.6 4.3 0.00 0.00 0.00 79 1014.5
20260508062149 49 103 2.6 4.3 0.00 0.00 0.00 79 1014.5
20260508061649 49 98 2.6 3.5 0.00 0.00 0.00 79 1014.4
20260508061151 49 105 2.6 2.6 0.00 0.00 0.00 79 1014.4
20260508060649 49 110 2.6 3.5 0.00 0.00 0.00 79 1014.4
20260508060149 49 107 1.7 3.5 0.00 0.00 0.00 78 1014.4
20260508055650 49 99 1.7 3.5 0.00 0.00 0.00 78 1014.4
20260508055149 49 96 2.6 2.6 0.00 0.00 0.00 78 1014.3
20260508054649 50 119 2.6 2.6 0.00 0.00 0.00 78 1014.3
20260508054151 50 103 1.7 2.6 0.00 0.00 0.00 78 1014.3
20260508053649 50 89 1.7 1.7 0.00 0.00 0.00 77 1014.3
20260508053149 50 105 1.7 4.3 0.00 0.00 0.00 77 1014.3
20260508052650 50 120 1.7 4.3 0.00 0.00 0.00 77 1014.3
20260508052150 50 96 2.6 4.3 0.00 0.00 0.00 77 1014.3
20260508051650 50 106 2.6 4.3 0.00 0.00 0.00 77 1014.3
20260508051151 50 91 2.6 4.3 0.00 0.00 0.00 77 1014.3
20260508050649 51 310 0.9 4.3 0.00 0.00 0.00 77 1014.3
20260508050149 51 12 0.9 4.3 0.00 0.00 0.00 76 1014.4
20260508045650 51 112 0.9 2.6 0.00 0.00 0.00 76 1014.5
20260508045149 51 22 0.0 2.6 0.00 0.00 0.00 76 1014.5
20260508044649 51 337 0.9 2.6 0.00 0.00 0.00 76 1014.5
20260508044151 51 99 0.9 1.7 0.00 0.00 0.00 76 1014.5
20260508043649 52 95 0.0 1.7 0.00 0.00 0.00 75 1014.5
20260508043149 52 29 0.9 1.7 0.00 0.00 0.00 75 1014.4
20260508042650 52 93 0.9 1.7 0.00 0.00 0.00 75 1014.4
20260508042149 52 102 0.0 1.7 0.00 0.00 0.00 75 1014.3
20260508041649 52 99 0.9 4.3 0.00 0.00 0.00 75 1014.4
20260508041151 52 327 0.0 4.3 0.00 0.00 0.00 75 1014.3
20260508040650 53 343 1.7 4.3 0.00 0.00 0.00 75 1014.3
20260508040149 53 350 0.9 8.7 0.00 0.00 0.00 75 1014.2
20260508035652 53 12 2.6 8.7 0.00 0.00 0.00 74 1014.3
20260508035149 53 344 0.9 8.7 0.00 0.00 0.00 74 1014.3
20260508034649 53 331 2.6 7.8 0.00 0.00 0.00 74 1014.2
20260508034151 53 5 2.6 7.8 0.00 0.00 0.00 74 1014.1
20260508033649 54 313 3.5 7.8 0.00 0.00 0.00 74 1014.0
20260508033149 54 324 6.1 10.4 0.00 0.00 0.00 74 1014.1
20260508032151 54 317 5.2 10.4 0.00 0.00 0.00 73 1014.0
20260508031649 54 322 5.2 10.4 0.00 0.00 0.00 73 1014.0
20260508031151 54 327 7.0 10.4 0.00 0.00 0.00 73 1014.0
20260508030649 54 316 5.2 10.4 0.00 0.00 0.00 73 1013.9
20260508030148 54 315 5.2 10.4 0.00 0.00 0.00 73 1013.8
20260508025651 54 331 6.1 11.3 0.00 0.00 0.00 73 1013.8
20260508025149 55 341 4.3 11.3 0.00 0.00 0.00 72 1013.8
20260508024649 55 310 5.2 11.3 0.00 0.00 0.00 72 1013.8
20260508024151 55 319 6.1 14.8 0.00 0.00 0.00 72 1013.9
20260508023649 55 324 8.7 14.8 0.00 0.00 0.00 72 1013.9
20260508023149 56 351 7.8 14.8 0.00 0.00 0.00 71 1013.9
20260508022650 56 324 8.7 12.2 0.00 0.00 0.00 71 1013.9
20260508022149 56 285 7.8 14.8 0.00 0.00 0.00 71 1013.9
20260508021649 56 330 7.8 14.8 0.00 0.00 0.00 71 1013.9
20260508021151 56 326 8.7 14.8 0.00 0.00 0.00 71 1013.8
20260508020649 56 310 8.7 14.8 0.00 0.00 0.00 71 1013.9
20260508020148 56 315 7.8 16.5 0.00 0.00 0.00 71 1013.9
20260508015650 56 319 9.6 16.5 0.00 0.00 0.00 71 1013.9
20260508015149 56 323 7.8 16.5 0.00 0.00 0.00 71 1014.0
20260508014151 56 8 7.8 16.5 0.00 0.00 0.00 70 1014.1
20260508013649 57 320 7.0 16.5 0.00 0.00 0.00 70 1014.1
20260508013149 57 336 9.6 14.8 0.00 0.00 0.00 70 1014.3
20260508012648 57 317 11.3 14.8 0.00 0.00 0.00 70 1014.3
20260508012149 57 334 9.6 14.8 0.00 0.00 0.00 70 1014.3
20260508011649 57 309 7.0 15.6 0.00 0.00 0.00 70 1014.3
20260508011151 57 326 9.6 15.6 0.00 0.00 0.00 70 1014.3
20260508010649 58 320 10.4 15.6 0.00 0.00 0.00 69 1014.4
20260508010149 58 319 9.6 16.5 0.00 0.00 0.00 69 1014.3
20260508005650 58 338 8.7 16.5 0.00 0.00 0.00 69 1014.3
20260508005149 58 323 7.8 16.5 0.00 0.00 0.00 69 1014.2
20260508004649 58 329 9.6 15.6 0.00 0.00 0.00 69 1014.2
20260508004151 58 324 8.7 17.4 0.00 0.00 0.00 69 1014.3
20260508003649 58 341 9.6 17.4 0.00 0.00 0.00 69 1014.5
20260508003149 58 320 10.4 17.4 0.00 0.00 0.00 69 1014.6
20260508002648 58 322 10.4 17.4 0.00 0.00 0.00 69 1014.7
20260508002149 58 324 11.3 17.4 0.00 0.00 0.00 68 1014.7
20260508001649 59 330 10.4 17.4 0.00 0.00 0.00 69 1014.6
20260508001151 59 344 10.4 16.5 0.00 0.00 0.00 68 1014.6
20260508000649 59 322 11.3 16.5 0.00 0.00 0.00 68 1014.6
20260508000149 59 327 7.8 14.8 0.00 0.00 0.00 68 1014.6
20260507235650 59 327 10.4 14.8 0.00 0.00 0.00 68 1014.6
20260507235149 59 306 9.6 16.5 0.00 0.00 0.00 68 1014.6
20260507234649 59 324 9.6 16.5 0.00 0.00 0.00 67 1014.6
20260507234151 59 330 9.6 16.5 0.00 0.00 0.00 67 1014.5
20260507233649 59 334 11.3 16.5 0.00 0.00 0.00 67 1014.6
20260507233149 59 319 9.6 16.5 0.00 0.00 0.00 67 1014.6
20260507232650 60 330 8.7 14.8 0.00 0.00 0.00 67 1014.7
20260507232149 59 327 7.0 16.5 0.00 0.00 0.00 68 1014.7
20260507231649 59 331 11.3 16.5 0.00 0.00 0.00 67 1014.9
20260507231151 59 317 9.6 16.5 0.00 0.00 0.00 67 1014.9
20260507230649 60 317 11.3 17.4 0.00 0.00 0.00 66 1014.9
20260507230149 60 317 9.6 17.4 0.00 0.00 0.00 67 1015.0
20260507225651 59 324 9.6 17.4 0.00 0.00 0.00 67 1015.1
20260507225149 60 334 12.2 16.5 0.00 0.00 0.00 67 1015.2
20260507224151 60 333 10.4 16.5 0.00 0.00 0.00 67 1015.3
20260507223649 60 327 10.4 15.6 0.00 0.00 0.00 66 1015.4
20260507223149 60 330 9.6 15.6 0.00 0.00 0.00 66 1015.4
20260507222650 60 326 9.6 15.6 0.00 0.00 0.00 66 1015.5
20260507222149 61 337 9.6 15.6 0.00 0.00 0.00 66 1015.6
20260507221649 61 324 9.6 15.6 0.00 0.00 0.00 66 1015.7
20260507221151 61 326 8.7 15.6 0.00 0.00 0.00 66 1015.7
20260507220650 61 324 8.7 15.6 0.00 0.00 0.00 66 1015.7
20260507220149 61 343 8.7 15.6 0.00 0.00 0.00 66 1015.7
20260507215650 62 336 10.4 13.9 0.00 0.00 0.00 65 1015.8
20260507215149 62 326 9.6 15.6 0.00 0.00 0.00 65 1015.8
20260507214649 62 343 6.1 15.6 0.00 0.00 0.00 67 1016.0
20260507214151 62 326 7.0 15.6 0.00 0.00 0.00 67 1016.0
20260507213649 61 337 11.3 14.8 0.00 0.00 0.00 65 1016.0
20260507213149 61 329 7.8 13.9 0.00 0.00 0.00 66 1016.0
20260507212650 61 331 7.8 15.6 0.00 0.00 0.00 66 1015.9
20260507212149 62 324 11.3 15.6 0.00 0.00 0.00 65 1015.8
20260507211649 62 333 9.6 15.6 0.00 0.00 0.00 66 1015.9
20260507211151 62 337 9.6 14.8 0.00 0.00 0.00 66 1015.9
20260507210649 62 324 11.3 14.8 0.00 0.00 0.00 66 1015.8
20260507210149 62 327 7.0 14.8 0.00 0.00 0.00 67 1015.8
20260507205650 62 350 9.6 13.9 0.00 0.00 0.00 65 1015.7
20260507205149 62 330 9.6 13.9 0.00 0.00 0.00 65 1015.6
20260507204650 62 327 9.6 13.9 0.00 0.00 0.00 65 1015.6
20260507204151 62 337 9.6 13.9 0.00 0.00 0.00 65 1015.6
20260507203649 62 333 8.7 13.9 0.00 0.00 0.00 66 1015.7
20260507203149 63 324 9.6 13.9 0.00 0.00 0.00 65 1015.7
20260507202650 63 302 10.4 13.9 0.00 0.00 0.00 64 1015.8
20260507202149 63 322 7.0 13.9 0.00 0.00 0.00 66 1015.9
20260507201152 63 333 7.8 13.9 0.00 0.00 0.00 66 1015.9
20260507200649 63 326 9.6 13.0 0.00 0.00 0.00 64 1015.9
20260507200149 62 336 7.8 13.0 0.00 0.00 0.00 66 1015.9
20260507195650 62 2 7.8 13.0 0.00 0.00 0.00 66 1015.9
20260507195150 62 320 9.6 13.9 0.00 0.00 0.00 65 1016.0
20260507194649 63 351 9.6 13.9 0.00 0.00 0.00 65 1016.0
20260507194151 63 323 10.4 13.9 0.00 0.00 0.00 65 1016.0
20260507193649 63 323 8.7 13.0 0.00 0.00 0.00 65 1016.1
20260507193151 63 289 8.7 12.2 0.00 0.00 0.00 65 1016.1
20260507192650 63 316 7.8 12.2 0.00 0.00 0.00 66 1016.1
20260507192149 63 326 7.8 12.2 0.00 0.00 0.00 66 1016.2
20260507191649 63 334 7.8 12.2 0.00 0.00 0.00 66 1016.2
20260507191151 63 326 7.0 13.9 0.00 0.00 0.00 67 1016.2
20260507190649 62 312 7.0 13.9 0.00 0.00 0.00 67 1016.2
20260507190149 62 334 9.6 13.9 0.00 0.00 0.00 66 1016.2
20260507185650 62 323 7.0 13.0 0.00 0.00 0.00 66 1016.3
20260507185149 62 322 6.1 12.2 0.00 0.00 0.00 67 1016.3
20260507184649 62 326 7.0 13.0 0.00 0.00 0.00 67 1016.3
20260507184151 62 327 7.8 13.0 0.00 0.00 0.00 68 1016.3
20260507183649 61 341 8.7 13.0 0.00 0.00 0.00 68 1016.3
20260507183149 61 333 9.6 13.9 0.00 0.00 0.00 68 1016.3
20260507182650 61 315 8.7 13.9 0.00 0.00 0.00 67 1016.4
20260507182149 62 326 10.4 13.9 0.00 0.00 0.00 67 1016.4
20260507181649 62 322 9.6 13.0 0.00 0.00 0.00 67 1016.4
20260507181151 61 327 7.8 14.8 0.00 0.00 0.00 68 1016.5
20260507180649 61 329 9.6 14.8 0.00 0.00 0.00 68 1016.5
20260507180149 61 324 9.6 14.8 0.00 0.00 0.00 67 1016.5
20260507175650 61 322 7.8 13.9 0.00 0.00 0.00 68 1016.6
20260507175149 61 320 8.7 13.9 0.00 0.00 0.00 68 1016.7
20260507174649 60 298 7.0 13.9 0.00 0.00 0.00 70 1016.6
20260507174151 60 341 8.7 13.9 0.00 0.00 0.00 69 1016.6
20260507173650 59 312 7.8 13.9 0.00 0.00 0.00 70 1016.6
20260507173149 58 341 7.0 13.9 0.00 0.00 0.00 72 1016.6
20260507172650 58 324 8.7 13.0 0.00 0.00 0.00 71 1016.7
20260507172149 58 320 7.8 13.0 0.00 0.00 0.00 71 1016.8
20260507171649 58 323 8.7 12.2 0.00 0.00 0.00 71 1016.8
20260507171151 58 340 7.8 12.2 0.00 0.00 0.00 72 1016.8
20260507170649 58 345 7.8 12.2 0.00 0.00 0.00 72 1016.8
20260507165650 57 347 7.8 12.2 0.00 0.00 0.00 72 1016.8
20260507165149 58 319 7.8 11.3 0.00 0.00 0.00 72 1016.8
20260507164649 57 341 7.0 11.3 0.00 0.00 0.00 72 1016.8
20260507164150 58 333 7.8 9.6 0.00 0.00 0.00 73 1016.9
20260507163649 57 324 7.0 9.6 0.00 0.00 0.00 73 1016.8
20260507163148 57 326 6.1 8.7 0.00 0.00 0.00 73 1016.9
20260507162649 57 344 5.2 8.7 0.00 0.00 0.00 73 1016.9
20260507162149 57 323 4.3 8.7 0.00 0.00 0.00 74 1016.9
20260507161649 56 341 6.1 7.8 0.00 0.00 0.00 75 1016.9
20260507161150 56 313 5.2 8.7 0.00 0.00 0.00 75 1016.9
20260507160648 55 309 3.5 8.7 0.00 0.00 0.00 76 1016.9